Stations météo

réclame
Mon MeteoGroup
Chillingham Barns, Grande-Bretagne (99196): Température de l'air & dewpoint: 16.04.2019 15:00:00 - 22.04.2019 15:00:00 (BST)Chillingham Barns, Grande-Bretagne (99196): Quantités de précipitations: 16.04.2019 15:00:00 - 22.04.2019 15:00:00 (BST)
Date & Time tt [°C] td [°C] rr [mm]
22.04.2019 15:00:00 16,7 0,5 0,0
22.04.2019 14:00:00 17,1 2,7 0,0
22.04.2019 13:00:00 17,9 3,7 0,0
22.04.2019 12:00:00 17,8 5,2 0,0
22.04.2019 11:00:00 17,7 6,4 0,0
22.04.2019 10:00:00 15,8 8,1 0,0
22.04.2019 09:00:00 13,8 7,7 0,0
22.04.2019 08:00:00 9,5 7,0 0,0
22.04.2019 07:00:00 5,9 4,4 0,0
22.04.2019 06:00:00 6,0 4,3 0,0
22.04.2019 05:00:00 7,1 4,5 0,0
22.04.2019 04:00:00 8,6 4,7 0,0
22.04.2019 03:00:00 11,8 5,7 0,0
22.04.2019 02:00:00 10,9 5,9 0,0
22.04.2019 01:00:00 10,4 6,1 0,0
22.04.2019 00:00:00 9,9 6,1 0,0
21.04.2019 23:00:00 10,8 6,6 0,0
21.04.2019 22:00:00 11,8 7,3 0,0
21.04.2019 21:00:00 13,9 7,7 0,0
21.04.2019 20:00:00 17,5 8,5 0,0
21.04.2019 19:00:00 19,6 9,4 0,0
21.04.2019 18:00:00 21,2 7,1 0,0
21.04.2019 17:00:00 21,9 6,9 0,0
21.04.2019 16:00:00 22,3 7,0 0,0
21.04.2019 15:00:00 22,5 6,6 0,0
21.04.2019 14:00:00 22,1 7,8 0,0
21.04.2019 13:00:00 21,9 7,0 0,0
21.04.2019 12:00:00 21,3 10,4 0,0
21.04.2019 11:00:00 19,5 8,5 0,0
21.04.2019 10:00:00 18,5 9,5 0,0
21.04.2019 09:00:00 17,0 8,7 0,0
21.04.2019 08:00:00 13,2 7,1 0,0
21.04.2019 07:00:00 10,4 5,9 0,0
21.04.2019 06:00:00 9,3 5,1 0,0
21.04.2019 05:00:00 9,3 4,0 0,0
21.04.2019 04:00:00 10,0 2,7 0,0
21.04.2019 03:00:00 12,1 2,9 0,0
21.04.2019 02:00:00 12,7 2,1 0,0
21.04.2019 01:00:00 13,6 2,5 0,0
21.04.2019 00:00:00 12,6 4,1 0,0
20.04.2019 23:00:00 12,8 6,6 0,0
20.04.2019 22:00:00 13,0 7,1 0,0
20.04.2019 21:00:00 14,2 6,6 0,0
20.04.2019 20:00:00 17,2 6,4 0,0
20.04.2019 19:00:00 19,1 7,9 0,0
20.04.2019 18:00:00 21,1 8,0 0,0
20.04.2019 17:00:00 21,9 8,0 0,0
20.04.2019 16:00:00 22,5 9,8 0,0
20.04.2019 15:00:00 22,1 9,8 0,0
20.04.2019 14:00:00 23,3 10,7 0,0
20.04.2019 13:00:00 22,5 7,4 0,0
20.04.2019 12:00:00 21,0 9,3 0,0
20.04.2019 11:00:00 18,9 9,9 0,0
20.04.2019 10:00:00 17,1 8,5 0,0
20.04.2019 09:00:00 14,3 9,5 0,0
20.04.2019 08:00:00 10,4 6,6 0,0
20.04.2019 07:00:00 7,8 5,1 0,0
20.04.2019 06:00:00 8,4 4,9 0,0
20.04.2019 05:00:00 10,0 5,1 0,0
20.04.2019 04:00:00 11,4 5,2 0,0
20.04.2019 03:00:00 12,5 5,7 0,0
20.04.2019 02:00:00 12,8 6,1 0,0
20.04.2019 01:00:00 10,8 5,2 0,0
20.04.2019 00:00:00 11,9 5,2 0,0
19.04.2019 23:00:00 11,4 4,9 0,0
19.04.2019 22:00:00 12,2 3,8 0,0
19.04.2019 21:00:00 12,6 4,5 0,0
19.04.2019 20:00:00 13,5 4,5 0,0
19.04.2019 19:00:00 14,8 5,4 0,0
19.04.2019 18:00:00 16,7 5,5 0,0
19.04.2019 17:00:00 18,1 6,3 0,0
19.04.2019 16:00:00 18,9 5,4 0,0
19.04.2019 15:00:00 19,5 6,6 0,0
19.04.2019 14:00:00 19,7 7,3 0,0
19.04.2019 13:00:00 18,5 8,6 0,0
19.04.2019 12:00:00 16,4 8,6 0,0
19.04.2019 11:00:00 13,8 10,3 0,0
19.04.2019 10:00:00 10,5 8,1 0,0
19.04.2019 09:00:00 8,7 7,6 0,0
19.04.2019 08:00:00 5,7 5,2 0,0
19.04.2019 07:00:00 4,9 4,2 0,0
19.04.2019 06:00:00 6,3 5,3 0,0
19.04.2019 05:00:00 4,4 4,0 0,0
19.04.2019 04:00:00 4,9 4,4 0,0
19.04.2019 03:00:00 5,7 5,3 0,0
19.04.2019 02:00:00 5,5 4,8 0,0
19.04.2019 01:00:00 6,3 5,7 0,0
19.04.2019 00:00:00 5,9 5,0 0,0
18.04.2019 23:00:00 7,4 6,1 0,0
18.04.2019 22:00:00 7,4 6,2 0,0
18.04.2019 21:00:00 7,7 6,0 0,0
18.04.2019 20:00:00 8,8 6,3 0,0
18.04.2019 19:00:00 10,3 7,0 0,0
18.04.2019 18:00:00 11,8 6,5 0,0
18.04.2019 17:00:00 13,3 7,3 0,0
18.04.2019 16:00:00 13,8 7,1 0,0
18.04.2019 15:00:00 14,1 6,5 0,0
18.04.2019 14:00:00 15,5 7,8 0,0
18.04.2019 13:00:00 15,8 6,6 0,0
18.04.2019 12:00:00 14,5 9,3 0,0
18.04.2019 11:00:00 12,5 8,4 0,0
18.04.2019 10:00:00 9,7 7,5 0,0
18.04.2019 09:00:00 7,3 7,1 0,0
18.04.2019 08:00:00 6,2 6,1 0,0
18.04.2019 07:00:00 5,0 4,8 0,0
18.04.2019 06:00:00 5,7 5,5 0,0
18.04.2019 05:00:00 5,8 5,6 0,0
18.04.2019 04:00:00 6,4 6,2 0,0
18.04.2019 03:00:00 6,5 6,3 0,0
18.04.2019 02:00:00 6,3 6,0 0,0
18.04.2019 01:00:00 6,1 5,8 0,0
18.04.2019 00:00:00 5,9 5,2 0,0
17.04.2019 23:00:00 6,6 6,0 0,0
17.04.2019 22:00:00 6,7 6,0 0,0
17.04.2019 21:00:00 6,1 4,6 0,0
17.04.2019 20:00:00 8,0 5,0 0,0
17.04.2019 19:00:00 9,3 5,6 0,0
17.04.2019 18:00:00 10,2 5,8 0,0
17.04.2019 17:00:00 10,8 5,4 0,0
17.04.2019 16:00:00 12,2 5,9 0,0
17.04.2019 15:00:00 12,1 5,1 0,0
17.04.2019 14:00:00 12,3 5,0 0,0
17.04.2019 13:00:00 12,3 4,7 0,0
17.04.2019 12:00:00 11,6 6,5 0,0
17.04.2019 11:00:00 9,6 6,1 0,0
17.04.2019 10:00:00 8,2 5,3 0,0
17.04.2019 09:00:00 7,5 5,2 0,0
17.04.2019 08:00:00 7,2 5,2 0,0
17.04.2019 07:00:00 6,2 4,8 0,0
17.04.2019 06:00:00 6,0 4,4 0,0
17.04.2019 05:00:00 6,2 4,3 0,0
17.04.2019 04:00:00 6,2 4,3 0,0
17.04.2019 03:00:00 6,1 4,3 0,0
17.04.2019 02:00:00 6,0 4,2 0,0
17.04.2019 01:00:00 6,1 4,0 0,0
17.04.2019 00:00:00 6,2 4,2 0,0
16.04.2019 23:00:00 6,2 4,2 0,0
16.04.2019 22:00:00 6,4 4,2 0,0
16.04.2019 21:00:00 6,6 4,2 0,0
16.04.2019 20:00:00 6,8 4,4 0,0
16.04.2019 19:00:00 7,3 4,8 0,0
16.04.2019 18:00:00 8,0 5,2 0,0
16.04.2019 17:00:00 8,4 5,0 0,0
16.04.2019 16:00:00 9,0 5,7 0,0
16.04.2019 15:00:00 8,8 5,4 0,0

tt = Température de l'air
td = dewpoint
rr = Quantités de précipitations

stations d'obs. à proximité